Back to catalog

COSMOS 2251 DEB

AliveLEO
NORAD 34620·DEBRIS·🇷🇺 Russia

Launched Jun 16, 1993 from Plesetsk Cosmodrome

Loading…

Next Passes (next 24 hours)

TLE

FreshSource: Space-Track

Epoch: Sep 14, 2026, 03:15 UTC

1 34620U 93036WR  26257.13548623  .00004757  00000-0  10955-2 0  9995
2 34620  74.0487  61.1030 0074129  31.1726 329.3801 14.53934059908243

Track COSMOS 2251 DEB in real time with AllMySat

Download on the App Store